[Date Prev][Date Next][Thread Prev][Thread Next] - [Date Index][Thread Index][Author Index]
2 Line ISS Keps 12-12
- Subject: [sarex] 2 Line ISS Keps 12-12
- From: "Dave Larsen Ph.D." <doc@xxxxxxxxxxx>
- Date: Thu, 12 Dec 2002 03:55:53 -0800
ISS
1 25544U 98067A 02346.19351494 .00031955 00000-0 43372-3 0 4654
2 25544 51.6367 239.3358 0003318 258.3401 239.2203 15.57333439231731
----
Via the sarex mailing list at AMSAT.ORG courtesy of AMSAT-NA.
To unsubscribe, send "unsubscribe sarex" to Majordomo@amsat.org
AMSAT Home